This is the latest recevied weather packets stored in our database for station/object KC5L-7. If no packets are shown the sender has not sent any weather packets the latest 10 day(s).
| Time | Temp. | Humidity | Pressure | Rain* | Wind** | Luminosity | Snow |
|---|---|---|---|---|---|---|---|
| 1777751098 | 22.78° C | 37% | 1018.8 hPa | 0 mm | - | - | - |
| 1777749898 | 22.22° C | 38% | 1018.9 hPa | 0 mm | - | - | - |
| 1777749298 | 22.22° C | 38% | 1019 hPa | 0 mm | - | - | - |
| 1777748698 | 22.22° C | 38% | 1019.1 hPa | 0 mm | - | - | - |
| 1777748098 | 22.22° C | 40% | 1019.3 hPa | 0 mm | - | - | - |
| 1777747498 | 21.67° C | 40% | 1019.4 hPa | 0 mm | - | - | - |
| 1777746899 | 21.67° C | 41% | 1019.6 hPa | 0 mm | - | - | - |
| 1777746298 | 21.67° C | 43% | 1019.8 hPa | 0 mm | - | - | - |
| 1777745698 | 21.67° C | 42% | 1019.9 hPa | 0 mm | - | - | - |
| 1777745098 | 21.11° C | 43% | 1020 hPa | 0 mm | - | - | - |
| 1777744498 | 21.11° C | 44% | 1020.2 hPa | 0 mm | - | - | - |
| 1777743897 | 20.56° C | 44% | 1020.4 hPa | 0 mm | - | - | - |
| 1777743298 | 20.56° C | 44% | 1020.5 hPa | 0 mm | - | - | - |
| 1777742098 | 20° C | 44% | 1020.9 hPa | 0 mm | - | - | - |
| 1777741498 | 20° C | 45% | 1021 hPa | 0 mm | - | - | - |
| 1777740898 | 20° C | 43% | 1021.1 hPa | 0 mm | - | - | - |
| 1777740298 | 19.44° C | 44% | 1021 hPa | 0 mm | - | - | - |
| 1777739698 | 19.44° C | 44% | 1021 hPa | 0 mm | - | - | - |
| 1777739097 | 19.44° C | 47% | 1021.1 hPa | 0 mm | - | - | - |
| 1777738498 | 18.89° C | 49% | 1021 hPa | 0 mm | - | - | - |
| 1777737898 | 18.89° C | 53% | 1021 hPa | 0 mm | - | - | - |
| 1777737298 | 18.89° C | 52% | 1020.9 hPa | 0 mm | - | - | - |
| 1777736698 | 18.33° C | 53% | 1021.1 hPa | 0 mm | - | - | - |
| 1777736098 | 17.78° C | 54% | 1021 hPa | 0 mm | - | - | - |
| 1777735498 | 17.78° C | 56% | 1021 hPa | 0 mm | - | - | - |
* Rain latest hour (hover to see other rain measurements)
** Current wind speed in m/s (hover to see current wind gust speed)